Location: Chavannes
(47.1090°N, 0.2226°W)
Time: 17:58:27
(UTC+00:00)

Cosmos 1892 Rocket - Visible Passes

Search period start: 27 May 2022 00:00
Search period end: 06 June 2022 00:00
Orbit: 606 x 632 km, 82.5° (Epoch: 27 May)

Date Brightness Start Highest point End Pass type
(mag) Time Alt. Az. Time Alt. Az. Time Alt. Az.
27 May 6.3 01:48:23 10° ESE 01:50:28 13° E 01:52:34 10° NE visible
27 May 3.7 03:23:17 10° SSW 03:27:43 69° W 03:32:13 10° N visible
28 May 5.7 02:04:06 10° SE 02:07:34 23° E 02:11:04 10° NE visible
29 May 4.8 02:20:38 10° SSE 02:24:46 39° E 02:28:57 10° NNE visible
30 May 3.8 02:37:51 11° S 02:42:04 71° E 02:46:33 10° NNE visible
31 May 6.1 01:19:52 10° ESE 01:22:10 14° E 01:24:27 10° NE visible
31 May 3.7 02:55:22 12° SSW 02:59:28 65° WNW 03:03:56 10° N visible
01 Jun 5.5 01:35:43 10° SE 01:39:17 24° E 01:42:52 10° NE visible
01 Jun 4.4 03:12:52 10° SW 03:16:57 37° WNW 03:21:08 10° N visible
02 Jun 4.6 01:53:10 15° SSE 01:56:28 41° E 02:00:43 10° NNE visible
02 Jun 5.1 03:31:03 10° WSW 03:34:32 22° WNW 03:38:03 10° NNW visible
03 Jun 3.7 02:10:38 19° S 02:13:47 75° E 02:18:16 10° NNE visible
04 Jun 6.0 00:51:23 10° ESE 00:53:51 15° E 00:56:19 10° NE visible
04 Jun 3.7 02:28:04 19° SSW 02:31:11 62° WNW 02:35:38 10° N visible
05 Jun 5.4 01:08:19 15° SE 01:10:58 25° E 01:14:38 10° NNE visible
05 Jun 4.5 02:45:29 15° SW 02:48:40 35° WNW 02:52:49 10° N visible
